Location: Zagreb
(45.8000°N, 16.0000°E)
Time: 19:36:28
(UTC+02:00)

Tiros 1 despin weight - Pass Details

Date: 16 August 2022
Orbit: 591 x 638 km, 48.2° (Epoch: 06 October)

Event Time Altitude Azimuth Distance (km) Brightness Sun altitude
Rises 10:56:00 0° 217° (SW) 2,875 ? 48.6°
Reaches altitude 10° 10:58:29 10° 208° (SSW) 1,964 ? 48.9°
Maximum altitude 11:02:29 32° 145° (SE) 1,044 ? 49.4°
Drops below altitude 10° 11:06:28 10° 82° (E) 1,945 ? 49.9°
Sets 11:08:55 0° 72° (ENE) 2,843 ? 50.2°
